FW2847 Weather Reports


Display with metric or nautical units.
time (UTC)temp
F
wind
direction
speed
MPH
gust
MPH
rain 1hr
in
rain 24hr
in
rain mn
in
humidity
%
barometer
mb
20260510195932 64 83 2.0 9.0 0.00 0.00 0.00 41 1020.6
20260510195432 63 118 4.0 11.0 0.00 0.00 0.00 44 1020.6
20260510194930 63 84 4.0 11.0 0.00 0.00 0.00 43 1020.6
20260510194432 64 98 4.0 10.0 0.00 0.00 0.00 41 1020.6
20260510193931 63 85 6.0 13.0 0.00 0.00 0.00 44 1020.6
20260510193431 63 87 7.0 14.0 0.00 0.00 0.00 43 1020.6
20260510192932 63 70 5.0 14.0 0.00 0.00 0.00 42 1020.6
20260510192433 62 105 4.0 12.0 0.00 0.00 0.00 44 1020.6
20260510191931 62 93 4.0 12.0 0.00 0.00 0.00 45 1020.6
20260510191431 62 53 3.0 12.0 0.00 0.00 0.00 43 1020.6
20260510190929 62 227 2.0 8.0 0.00 0.00 0.00 42 1020.6
20260510190432 62 268 4.0 10.0 0.00 0.00 0.00 42 1020.6
20260510185928 62 84 4.0 10.0 0.00 0.00 0.00 43 1020.6
20260510185427 62 39 1.0 6.0 0.00 0.00 0.00 43 1020.6
20260510184927 61 91 2.0 7.0 0.00 0.00 0.00 44 1020.6
20260510184429 61 100 4.0 8.0 0.00 0.00 0.00 44 1020.6
20260510183925 62 23 5.0 10.0 0.00 0.00 0.00 42 1020.6
20260510183425 62 51 5.0 10.0 0.00 0.00 0.00 42 1020.6
20260510183157 62 15 4.0 9.0 0.00 0.00 0.00 47 1020.6
20260510183046 61 94 2.0 9.0 0.00 0.00 0.00 46 1020.6
20260510181926 61 63 2.0 6.0 0.00 0.00 0.00 45 1020.6
20260510181426 60 33 3.0 7.0 0.00 0.00 0.00 46 1020.6
20260510180928 60 63 5.0 9.0 0.00 0.00 0.00 46 1020.6
20260510180924 60 66 5.0 9.0 0.00 0.00 0.00 45 1020.6
20260510175920 60 91 2.0 8.0 0.00 0.00 0.00 50 1020.6
20260510175421 59 121 2.0 6.0 0.00 0.00 0.00 53 1020.6
20260510174922 59 63 3.0 8.0 0.00 0.00 0.00 52 1020.6
20260510174420 59 71 3.0 8.0 0.00 0.00 0.00 51 1020.6
20260510173920 59 104 4.0 10.0 0.00 0.00 0.00 53 1020.6
20260510173420 58 70 4.0 10.0 0.00 0.00 0.00 53 1020.6
20260510172922 58 94 2.0 7.0 0.00 0.00 0.00 52 1020.6
20260510172421 59 78 2.0 7.0 0.00 0.00 0.00 54 1020.6
20260510172155 59 304 4.0 8.0 0.00 0.00 0.00 51 1020.6
20260510171423 59 62 5.0 8.0 0.00 0.00 0.00 55 1020.6
20260510170920 58 58 4.0 10.0 0.00 0.00 0.00 55 1020.6
20260510170421 58 24 4.0 10.0 0.00 0.00 0.00 55 1020.6
20260510165921 57 69 3.0 8.0 0.00 0.00 0.00 56 1020.6
20260510165423 57 89 3.0 8.0 0.00 0.00 0.00 58 1020.6
20260510164920 58 100 3.0 8.0 0.00 0.00 0.00 59 1020.6
20260510164421 58 51 3.0 8.0 0.00 0.00 0.00 55 1020.6
20260510163921 58 28 4.0 9.0 0.00 0.00 0.00 56 1020.6
20260510163422 57 51 4.0 9.0 0.00 0.00 0.00 57 1020.6
20260510163151 56 58 3.0 8.0 0.00 0.00 0.00 59 1020.6
20260510162421 56 87 2.0 8.0 0.00 0.00 0.00 62 1020.6
20260510161922 55 112 1.0 6.0 0.00 0.00 0.00 60 1020.6
20260510161420 56 117 2.0 8.0 0.00 0.00 0.00 61 1020.6
20260510160921 56 66 3.0 8.0 0.00 0.00 0.00 63 1020.6
20260510160422 56 56 2.0 6.0 0.00 0.00 0.00 64 1020.6
20260510155923 56 77 2.0 6.0 0.00 0.00 0.00 64 1020.6
20260510155421 56 65 3.0 8.0 0.00 0.00 0.00 67 1020.6
20260510154920 55 81 3.0 8.0 0.00 0.00 0.00 67 1020.6
20260510154422 56 136 1.0 5.0 0.00 0.00 0.00 64 1020.6
20260510153922 56 268 0.0 4.0 0.00 0.00 0.00 65 1020.6
20260510153425 56 141 1.0 4.0 0.00 0.00 0.00 63 1020.6
20260510153421 56 328 1.0 4.0 0.00 0.00 0.00 66 1020.6
20260510152422 56 89 1.0 4.0 0.00 0.00 0.00 64 1020.6
20260510151920 56 278 1.0 6.0 0.00 0.00 0.00 65 1020.6
20260510151421 55 122 0.0 6.0 0.00 0.00 0.00 66 1020.6
20260510150920 55 154 0.0 3.0 0.00 0.00 0.00 66 1020.6
20260510150423 56 98 0.0 3.0 0.00 0.00 0.00 64 1020.6
20260510145922 56 259 0.0 1.0 0.00 0.00 0.00 67 1020.6
20260510145653 55 259 0.0 2.0 0.00 0.00 0.00 66 1020.6
20260510144923 54 295 0.0 3.0 0.00 0.00 0.00 68 1020.6
20260510144651 54 122 0.0 3.0 0.00 0.00 0.00 71 1020.6
20260510143918 53 115 1.0 3.0 0.00 0.00 0.00 70 1020.6
20260510143421 52 124 1.0 3.0 0.00 0.00 0.00 73 1020.6
20260510142919 52 111 1.0 5.0 0.00 0.00 0.00 74 1020.6
20260510142418 52 99 1.0 5.0 0.00 0.00 0.00 75 1020.6
20260510141917 52 131 0.0 1.0 0.00 0.00 0.00 75 1020.6
20260510141419 52 96 0.0 1.0 0.00 0.00 0.00 76 1020.6
20260510140914 51 113 0.0 2.0 0.00 0.00 0.00 78 1020.6
20260510140416 50 236 0.0 2.0 0.00 0.00 0.00 80 1020.6
20260510135912 49 93 0.0 1.0 0.00 0.00 0.00 83 1020.6
20260510135644 48 94 0.0 0.0 0.00 0.00 0.00 86 1020.6
20260510134911 47 164 0.0 2.0 0.00 0.00 0.00 85 1020.6
20260510134410 47 154 0.0 2.0 0.00 0.00 0.00 85 1020.6
20260510133910 47 205 0.0 1.0 0.00 0.00 0.00 86 1020.6
20260510133643 47 165 0.0 1.0 0.00 0.00 0.00 87 1020.6
20260510132910 47 320 0.0 1.0 0.00 0.00 0.00 89 1020.6
20260510132410 46 73 0.0 1.0 0.00 0.00 0.00 91 1020.6
20260510132144 46 73 0.0 0.0 0.00 0.00 0.00 91 1020.6
20260510131411 45 73 0.0 0.0 0.00 0.00 0.00 91 1020.6
20260510130910 44 88 0.0 1.0 0.00 0.00 0.00 91 1020.6
20260510130412 44 88 0.0 1.0 0.00 0.00 0.00 91 1020.6
20260510125913 44 69 0.0 2.0 0.00 0.00 0.00 91 1020.6
20260510125410 44 69 0.0 2.0 0.00 0.00 0.00 91 1020.6
20260510124910 44 68 1.0 2.0 0.00 0.00 0.00 91 1020.6
20260510124410 44 51 0.0 2.0 0.00 0.00 0.00 91 1020.6
20260510123913 44 94 0.0 3.0 0.00 0.00 0.00 90 1020.6
20260510123410 44 52 0.0 3.0 0.00 0.00 0.00 90 1020.6
20260510122910 44 84 1.0 3.0 0.00 0.00 0.00 90 1020.6
20260510122410 44 66 1.0 3.0 0.00 0.00 0.00 89 1020.6
20260510121912 44 70 1.0 4.0 0.00 0.00 0.00 89 1020.6
20260510121410 44 64 1.0 4.0 0.00 0.00 0.00 89 1020.6
20260510121141 44 75 1.0 3.0 0.00 0.00 0.00 88 1020.6
20260510120409 45 92 1.0 4.0 0.00 0.00 0.00 87 1020.6
20260510115909 45 76 1.0 4.0 0.00 0.00 0.00 87 1020.6
20260510115408 45 76 1.0 3.0 0.00 0.00 0.00 87 1020.6
20260510114908 45 63 2.0 3.0 0.00 0.00 0.00 86 1020.6
20260510114410 45 61 1.0 3.0 0.00 0.00 0.00 85 1020.6
20260510113908 45 57 0.0 3.0 0.00 0.00 0.00 84 1020.6
20260510113409 45 81 0.0 3.0 0.00 0.00 0.00 83 1020.6
20260510112910 45 86 0.0 1.0 0.00 0.00 0.00 83 1020.6
20260510112410 45 81 0.0 1.0 0.00 0.00 0.00 83 1020.6
20260510111908 45 82 0.0 0.0 0.00 0.00 0.00 83 1020.6
20260510111411 45 82 0.0 0.0 0.00 0.00 0.00 82 1020.6
20260510111405 45 82 0.0 0.0 0.00 0.00 0.00 83 1020.6
20260510110408 45 82 0.0 0.0 0.00 0.00 0.00 82 1020.6
20260510105906 46 82 0.0 2.0 0.00 0.00 0.00 82 1020.6
20260510105406 46 69 1.0 3.0 0.00 0.00 0.00 82 1020.6
20260510104906 46 59 1.0 3.0 0.00 0.00 0.00 82 1020.6
20260510104407 46 58 1.0 3.0 0.00 0.00 0.00 82 1020.6
20260510103911 46 83 0.0 2.0 0.00 0.00 0.00 82 1020.6
20260510103906 46 32 1.0 2.0 0.00 0.00 0.00 82 1020.6
20260510102908 46 70 0.0 1.0 0.00 0.00 0.00 82 1020.6
20260510102403 46 92 0.0 2.0 0.00 0.00 0.00 81 1020.6
20260510101909 46 90 0.0 0.0 0.00 0.00 0.00 81 1020.6
20260510101905 46 88 0.0 2.0 0.00 0.00 0.00 81 1020.6
20260510100904 46 72 0.0 0.0 0.00 0.00 0.00 81 1020.6
20260510100405 46 96 0.0 0.0 0.00 0.00 0.00 81 1020.6
20260510095906 46 99 0.0 0.0 0.00 0.00 0.00 81 1020.6
20260510095405 46 104 0.0 0.0 0.00 0.00 0.00 82 1020.6
20260510094903 46 95 0.0 0.0 0.00 0.00 0.00 82 1020.6
20260510094406 46 98 0.0 0.0 0.00 0.00 0.00 82 1020.6
20260510093905 46 98 0.0 0.0 0.00 0.00 0.00 82 1020.6
20260510093402 46 98 0.0 0.0 0.00 0.00 0.00 82 1020.6
20260510093135 46 98 0.0 0.0 0.00 0.00 0.00 82 1020.6
20260510092402 46 98 0.0 0.0 0.00 0.00 0.00 82 1020.6
20260510091903 46 98 0.0 0.0 0.00 0.00 0.00 82 1020.6
20260510091403 46 98 0.0 0.0 0.00 0.00 0.00 82 1020.6
20260510091135 46 98 0.0 0.0 0.00 0.00 0.00 82 1020.6
20260510090403 46 98 0.0 0.0 0.00 0.00 0.00 81 1020.6
20260510085902 46 98 0.0 0.0 0.00 0.00 0.00 81 1020.6
20260510085403 46 98 0.0 0.0 0.00 0.00 0.00 81 1020.6
20260510084901 46 104 0.0 0.0 0.00 0.00 0.00 82 1020.6
20260510084634 46 93 0.0 0.0 0.00 0.00 0.00 82 1020.6
20260510083905 46 90 0.0 0.0 0.00 0.00 0.00 82 1020.6
20260510083403 46 90 0.0 0.0 0.00 0.00 0.00 82 1020.6
20260510082903 46 90 0.0 0.0 0.00 0.00 0.00 82 1020.6
20260510082402 46 90 0.0 0.0 0.00 0.00 0.00 82 1020.6
20260510081903 46 98 0.0 2.0 0.00 0.00 0.00 82 1020.6
20260510081401 46 98 1.0 2.0 0.00 0.00 0.00 81 1020.6
20260510081133 46 78 0.0 2.0 0.00 0.00 0.00 80 1020.6
20260510080402 46 108 0.0 2.0 0.00 0.00 0.00 79 1020.6
20260510075858 46 84 0.0 2.0 0.00 0.00 0.00 78 1020.6
20260510075629 46 105 0.0 2.0 0.00 0.00 0.00 80 1020.6
20260510075129 46 98 0.0 1.0 0.00 0.00 0.00 80 1020.6
20260510074358 46 89 0.0 0.0 0.00 0.00 0.00 80 1020.6
20260510073858 46 94 0.0 0.0 0.00 0.00 0.00 80 1020.6
20260510073357 46 99 0.0 0.0 0.00 0.00 0.00 80 1020.6
20260510072857 46 92 0.0 0.0 0.00 0.00 0.00 80 1020.6
20260510072357 46 91 0.0 0.0 0.00 0.00 0.00 81 1020.6
20260510071857 46 86 0.0 0.0 0.00 0.00 0.00 81 1020.6
20260510071629 46 352 0.0 0.0 0.00 0.00 0.00 81 1020.6
20260510071128 46 353 0.0 0.0 0.00 0.00 0.00 81 1020.6
20260510070357 46 353 0.0 0.0 0.00 0.00 0.00 81 1020.6
20260510065856 46 352 0.0 0.0 0.00 0.00 0.00 81 1020.6
20260510065358 46 353 0.0 1.0 0.00 0.00 0.00 82 1020.6
20260510064857 46 80 0.0 2.0 0.00 0.00 0.00 82 1020.6
20260510064357 46 84 0.0 2.0 0.00 0.00 0.00 82 1020.6
20260510063854 46 69 0.0 2.0 0.00 0.00 0.00 83 1020.6
20260510063355 46 75 1.0 2.0 0.00 0.00 0.00 82 1020.6
20260510062853 46 85 1.0 2.0 0.00 0.00 0.00 82 1020.6
20260510062352 46 79 1.0 2.0 0.00 0.00 0.00 81 1020.6
20260510061852 47 64 1.0 2.0 0.00 0.00 0.00 80 1020.6
20260510061354 47 74 1.0 2.0 0.00 0.00 0.00 80 1020.6
20260510061124 47 51 0.0 2.0 0.00 0.00 0.00 79 1020.6
20260510060354 47 36 0.0 2.0 0.00 0.00 0.00 79 1020.6
20260510055856 47 57 0.0 2.0 0.00 0.00 0.00 79 1020.6
20260510055352 47 75 0.0 0.0 0.00 0.00 0.00 78 1020.6
20260510054854 47 85 0.0 0.0 0.00 0.00 0.00 78 1020.6
20260510054352 47 83 0.0 0.0 0.00 0.00 0.00 78 1020.6
20260510053850 47 70 0.0 0.0 0.00 0.00 0.00 77 1020.6
20260510053351 47 84 0.0 0.0 0.00 0.00 0.00 77 1020.6
20260510052851 47 90 0.0 0.0 0.00 0.00 0.00 77 1020.6
20260510052350 47 90 0.0 0.0 0.00 0.00 0.00 77 1020.6
20260510051851 47 90 0.0 0.0 0.00 0.00 0.00 76 1020.6
20260510051349 47 90 0.0 0.0 0.00 0.00 0.00 76 1020.6
20260510050849 47 85 0.0 0.0 0.00 0.00 0.00 76 1020.6
20260510050622 47 79 0.0 0.0 0.00 0.00 0.00 75 1020.6
20260510045848 48 70 0.0 0.0 0.00 0.00 0.00 75 1020.6
20260510045348 48 68 0.0 0.0 0.00 0.00 0.00 74 1020.6
20260510044847 48 46 0.0 0.0 0.00 0.00 0.00 75 1020.6
20260510044350 48 316 0.0 1.0 0.00 0.00 0.00 74 1020.6
20260510043847 48 317 0.0 1.0 0.00 0.00 0.00 74 1020.6
20260510043618 48 56 0.0 1.0 0.00 0.00 0.00 74 1020.6
20260510043120 48 56 0.0 1.0 0.00 0.00 0.00 74 1020.6
20260510042348 48 70 0.0 1.0 0.00 0.00 0.00 74 1020.6
20260510041848 48 12 0.0 1.0 0.00 0.00 0.00 73 1020.6
20260510041349 48 335 0.0 2.0 0.00 0.00 0.00 73 1020.6
20260510040848 48 30 1.0 3.0 0.00 0.00 0.00 73 1020.6
20260510040348 48 344 0.0 3.0 0.00 0.00 0.00 74 1020.6
20260510035847 48 338 0.0 1.0 0.00 0.00 0.00 74 1020.6
20260510035348 48 321 0.0 1.0 0.00 0.00 0.00 73 1020.6
20260510034847 48 2 0.0 1.0 0.00 0.00 0.00 73 1020.6
20260510034348 48 355 0.0 1.0 0.00 0.00 0.00 73 1020.6
20260510033847 48 310 0.0 2.0 0.00 0.00 0.00 73 1020.6
20260510033347 48 3 1.0 5.0 0.00 0.00 0.00 74 1020.6
20260510033121 48 348 1.0 5.0 0.00 0.00 0.00 73 1020.6
20260510033010 48 333 1.0 4.0 0.00 0.00 0.00 73 1020.6
20260510031847 48 61 1.0 4.0 0.00 0.00 0.00 73 1020.6
20260510031349 48 308 1.0 5.0 0.00 0.00 0.00 73 1020.6
20260510030848 48 348 2.0 10.0 0.00 0.00 0.00 74 1020.6
20260510030347 48 353 5.0 14.0 0.00 0.00 0.00 73 1020.6
20260510025848 48 352 8.0 17.0 0.00 0.00 0.00 73 1020.6
20260510025350 48 14 10.0 20.0 0.00 0.00 0.00 73 1020.6
20260510024847 48 88 11.0 20.0 0.00 0.00 0.00 74 1020.6
20260510024619 48 349 10.0 20.0 0.00 0.00 0.00 74 1020.6
20260510023847 48 356 11.0 20.0 0.00 0.00 0.00 76 1020.6
20260510023345 48 347 12.0 22.0 0.00 0.00 0.00 75 1020.6
20260510023119 49 315 11.0 22.0 0.00 0.00 0.00 76 1020.6
20260510022616 48 329 10.0 18.0 0.00 0.00 0.00 76 1020.6
20260510021846 49 18 11.0 20.0 0.00 0.00 0.00 75 1020.6
20260510021347 49 41 13.0 22.0 0.00 0.00 0.00 74 1020.6
20260510020846 49 58 12.0 22.0 0.00 0.00 0.00 74 1020.6
20260510020346 50 8 12.0 20.0 0.00 0.00 0.00 73 1020.6
20260510015843 50 45 12.0 22.0 0.00 0.00 0.00 73 1020.6
20260510015344 50 25 13.0 22.0 0.00 0.00 0.00 72 1020.6
20260510014845 50 13 14.0 25.0 0.00 0.00 0.00 72 1020.6
20260510014348 51 19 13.0 21.0 0.00 0.00 0.00 71 1020.6
20260510014343 51 319 13.0 25.0 0.00 0.00 0.00 71 1020.6
20260510013345 51 342 14.0 23.0 0.00 0.00 0.00 70 1020.6
20260510012849 52 353 14.0 24.0 0.00 0.00 0.00 68 1020.6
20260510012843 51 342 13.0 23.0 0.00 0.00 0.00 69 1020.6
20260510011844 52 50 15.0 24.0 0.00 0.00 0.00 68 1020.6
20260510011344 52 311 17.0 27.0 0.00 0.00 0.00 67 1020.6
20260510010841 53 351 19.0 32.0 0.00 0.00 0.00 66 1020.6
20260510010342 53 300 19.0 32.0 0.00 0.00 0.00 65 1020.6
20260510005842 54 270 19.0 30.0 0.00 0.00 0.00 63 1020.6
20260510005342 56 273 21.0 33.0 0.00 0.00 0.00 60 1020.6
20260510004843 58 344 20.0 33.0 0.00 0.00 0.00 56 1020.6
20260510004342 62 338 12.0 33.0 0.00 0.00 0.00 47 1020.6
20260510003843 69 62 5.0 12.0 0.00 0.00 0.00 28 1020.6
20260510003341 69 80 4.0 10.0 0.00 0.00 0.00 27 1020.6
20260510003113 70 70 3.0 6.0 0.00 0.00 0.00 28 1020.6
20260510002343 70 33 2.0 6.0 0.00 0.00 0.00 27 1020.6
20260510001841 70 92 2.0 6.0 0.00 0.00 0.00 27 1020.6
20260510001342 70 74 2.0 9.0 0.00 0.00 0.00 26 1020.6
20260510000842 71 102 2.0 9.0 0.00 0.00 0.00 26 1020.6
20260510000344 71 138 4.0 8.0 0.00 0.00 0.00 25 1020.6
20260509235841 70 85 3.0 8.0 0.00 0.00 0.00 27 1020.6
20260509235341 71 93 4.0 10.0 0.00 0.00 0.00 27 1020.6
20260509234841 70 92 4.0 10.0 0.00 0.00 0.00 26 1020.6
20260509234343 70 99 3.0 7.0 0.00 0.00 0.00 26 1020.6
20260509233839 71 94 5.0 7.0 0.00 0.00 0.00 24 1020.6
20260509233339 71 80 5.0 12.0 0.00 0.00 0.00 26 1020.6
20260509233111 71 93 5.0 12.0 0.00 0.00 0.00 27 1020.6
20260509232339 72 77 2.0 9.0 0.00 0.00 0.00 25 1020.6
20260509231840 72 128 3.0 8.0 0.00 0.00 0.00 24 1020.6
20260509231339 72 120 5.0 10.0 0.00 0.00 0.00 24 1020.6
20260509230842 73 80 4.0 10.0 0.00 0.00 0.00 23 1020.6
20260509230340 73 142 2.0 7.0 0.00 0.00 0.00 24 1020.6
20260509225838 74 79 3.0 11.0 0.00 0.00 0.00 24 1020.6
20260509224836 74 113 5.0 11.0 0.00 0.00 0.00 24 1020.6
20260509224337 73 90 6.0 11.0 0.00 0.00 0.00 24 1020.6
20260509223838 74 96 5.0 11.0 0.00 0.00 0.00 23 1020.6
20260509223608 73 93 5.0 9.0 0.00 0.00 0.00 23 1020.6
20260509223108 74 91 5.0 13.0 0.00 0.00 0.00 23 1020.6
20260509222339 74 92 5.0 13.0 0.00 0.00 0.00 22 1020.6
20260509221836 74 70 3.0 11.0 0.00 0.00 0.00 22 1020.6
20260509221336 74 142 2.0 9.0 0.00 0.00 0.00 23 1020.6
20260509220838 74 75 2.0 9.0 0.00 0.00 0.00 20 1020.6
20260509220339 73 89 2.0 7.0 0.00 0.00 0.00 21 1020.6
20260509215836 74 86 1.0 7.0 0.00 0.00 0.00 21 1020.6
20260509215337 74 94 1.0 4.0 0.00 0.00 0.00 21 1020.6
20260509214837 73 309 3.0 11.0 0.00 0.00 0.00 20 1020.6
20260509214341 73 30 5.0 11.0 0.00 0.00 0.00 23 1020.6
20260509213836 72 48 2.0 8.0 0.00 0.00 0.00 24 1020.6
20260509213608 72 304 2.0 9.0 0.00 0.00 0.00 22 1020.6
20260509212843 71 75 5.0 12.0 0.00 0.00 0.00 23 1020.6
20260509212837 71 89 5.0 11.0 0.00 0.00 0.00 25 1020.6
20260509212451 71 53 4.0 12.0 0.00 0.00 0.00 24 1020.6
20260509210832 69 89 3.0 9.0 0.00 0.00 0.00 24 1020.6
20260509210334 70 53 5.0 16.0 0.00 0.00 0.00 24 1020.6
20260509205833 70 51 7.0 16.0 0.00 0.00 0.00 25 1020.6
20260509205333 70 95 8.0 13.0 0.00 0.00 0.00 25 1020.6
20260509204832 69 65 8.0 13.0 0.00 0.00 0.00 27 1020.6
20260509204334 69 59 7.0 13.0 0.00 0.00 0.00 26 1020.6
20260509203833 69 68 5.0 12.0 0.00 0.00 0.00 23 1020.6
20260509203333 70 65 5.0 16.0 0.00 0.00 0.00 23 1020.6
20260509203104 70 82 8.0 16.0 0.00 0.00 0.00 23 1020.6
20260509202603 70 85 9.0 15.0 0.00 0.00 0.00 26 1020.6
20260509201832 71 67 7.0 15.0 0.00 0.00 0.00 24 1020.6
20260509201334 71 36 8.0 16.0 0.00 0.00 0.00 25 1020.6
20260509200834 70 76 7.0 16.0 0.00 0.00 0.00 24 1020.6